Home   Weather   Słupsk   Past weeks

Flag for Poland Past Weather in Słupsk, Poland — Yesterday and Last 2 Weeks

Now
36 °F

Passing clouds.


Feels Like: 25 °F
Forecast: 34 / 37 °F
Wind: 23 mph from Southwest

Location: Leba

Current Time: Jan 20, 2017 at 1:27:39 pm

Latest Report: Jan 20, 2017 at 12:00 pm


Visibility: 3 mi

Pressure: 30.40 "Hg

Humidity: 100%

Dew Point: 36 °F

Location of SłupskLocation

Past Weather in Słupsk — Graph

°F

Słupsk Temperature Yesterday

Maximum temperature yesterday: 35 °F (at 10:00 pm)
Minimum temperature yesterday: 30 °F (at 7:00 am)
Average temperature yesterday: 32 °F

High & Low Weather Summary for the Past Weeks

 TemperatureHumidityPressure
High38 °F (Jan 20, 9:00 am)100% (Jan 13, 4:00 pm)30.71 "Hg (Jan 13, 4:00 pm)
Low15 °F (Jan 8, 9:00 am)53% (Jan 6, 2:00 am)29.18 "Hg (Jan 13, 1:00 pm)
Average29 °F86%30.13 "Hg
* Reported Jan 5 11:00 am — Jan 20 11:00 am, Słupsk, Weather by CustomWeather, © 2017

Note: Actual official high and low records may vary slightly from our data, if they occured in-between our weather recording intervals... More about our weather records

Advertising

Słupsk Weather History for the Previous 24 Hours

Scroll right to see more
 ConditionsComfort  
Time TempWeatherWind HumidityBarometerVisibility
11:00 am
Fri, Jan 20
37 °FDrizzle. Low clouds.8 mph100%30.41 "Hg4 mi
10:00 am38 °FDrizzle. Low clouds.9 mph100%30.42 "Hg5 mi
9:00 am38 °FLow clouds.8 mph100%30.42 "Hg2 mi
8:00 am36 °FDrizzle. Low clouds.8 mph100%30.42 "Hg1 mi
7:00 am36 °FDrizzle. Low clouds.8 mph100%30.41 "Hg1 mi
6:00 am37 °FFog.9 mph100%30.41 "Hg2 mi
5:00 am37 °FFog.8 mph100%30.43 "Hg1 mi
4:00 am37 °FFog.10 mph100%30.43 "Hg1 mi
3:00 am37 °FFog.10 mph100%30.44 "Hg1 mi
2:00 am36 °FLow clouds.10 mph100%30.44 "Hg1 mi
1:00 am37 °FDrizzle. Low clouds.9 mph100%30.44 "Hg1 mi
12:00 am35 °FDrizzle. Low clouds.8 mph100%30.45 "Hg0 mi
11:00 pm
Thu, Jan 19
35 °FFog.10 mph100%30.45 "Hg0 mi
10:00 pm35 °FFog.10 mph100%30.45 "Hg1 mi
9:00 pm34 °FFog.10 mph100%30.45 "Hg1 mi
8:00 pm34 °FFog.24 mph100%30.46 "Hg2 mi
7:00 pm33 °FFog.10 mph100%30.46 "Hg1 mi
6:00 pm33 °FFog.12 mph100%30.47 "Hg1 mi
5:00 pm33 °FLow clouds.12 mph100%30.48 "Hg1 mi
4:00 pm33 °FDrizzle. Low clouds.14 mph100%30.47 "Hg1 mi
3:00 pm33 °FDrizzle. Low clouds.13 mph100%30.48 "Hg1 mi
2:00 pm32 °FFog.12 mph100%30.49 "Hg1 mi
1:00 pm32 °FLow clouds.12 mph99%30.50 "Hg2 mi
Weather by CustomWeather, © 2017

See weather overviewHow to use our weather pages